Showing default

YAOGAN-32 B, 43643

Orbit data source: Space-Track

YAOGAN-32 B, 43643 is a payload satellite owned by PLA SSF (CN) in SSO that was launched on Tue, 09 Oct 2018 UTC via a CHANG ZHENG 2C/YZ-1S launch vehicle from the Jiuquan Satellite Launch Center, China (JSC). Payload-class satellites include a variety of spacecraft equipped with specific instruments for various scientific and technological missions. These include communications satellites like Starlink; space stations such as the ISS; scientific satellites like the Hubble; Earth observation satellites from companies like Planet Labs, Umbra, and HawkEye 360; GPS; miniature CubeSats for education and research; and military/defense satellites.

Loading next visibility...
Identifier
43643, 2018-077B
Orbit
SSO
Country
Flag of CNCN / PRC
Related business
Manufacturer
SECM?
Mission
Operational Defense Sigint
Bus & Motor
Unknown
Mass
~500 kg wet, ~500 kg dry
Launch date (UTC)
2018-10-09 (7 years ago)
Launch vehicle
CHANG ZHENG 2C/YZ-1S
Launch site
Jiuquan Satellite Launch Center, China (JSC)
Object type
Payload
Rocket body
Debris
Shape & HBR
Box + 2 Pan, 0.5 m
Radar Cross Section
0.446 m², Large (>1 m²)

Expand to show TLE details & history
Last TLE update: 1 day ago

TLE from 1 day ago
0 YAOGAN-32 B
1 43643U 18077B   26034.35324488  .00000160  00000-0  40417-4 0  9992
2 43643  98.1636  64.3725 0004650 282.6443  77.4239 14.62970649390266
Epoch: 2026-02-03T08:28Z
TLE epoch observation values (Epoch: 2026-02-03T08:28:40.357Z)
Latitude
-0.00001°
Longitude
163.66895°
Altitude
685.875 km
Speed
7.514 km/s
True Right ascension
04h 17m 29s
True Declination
0° 00' 00"
Sunlit
Object was in daylight at epoch
Visualization orbit readout
Latitude
Unknown
Longitude
Unknown
Altitude
Unknown
Speed
Unknown
Apparent Right ascension
Unknown
Apparent Declination
Unknown
Sunlit
N/A
Visualization observer readout
Local Sidereal Time
12:02:47
Azimuth
Unknown
Elevation
Unknown
Doppler factor
Unknown
Orbital elements
Apogee altitude
683.956 km
Perigee altitude
677.391 km
Semi-major axis
7,058.811 km
Eccentricity
0.00047
Inclination
98.1636°
RAAN
64.3725°
Arg. of periapsis
282.6443°
True anomaly
77.47591°
Mean anomaly
77.4239°
Eccentric anomaly
77.44991°
Mean motion
3.6597 °/min
Orbital period
98.37 mins
BSTAR
0.000040417
Loading maneuver chart data...
Computing Atmospheric mass density...
Loading historical data...
Loading historical data...
Loading historical data...
Loading historical data...
Loading historical data...
Loading historical data...
Loading historical data...
Other satellites on launch #77 in the year 2018 (2018-10-09 UTC)

Documentation

Showing up to 5 results
|